Location: Recife
(8.0585°S, 34.8848°W)
Time: 10:59:40
(UTC-03:00)

Courier 1B Rocket - Pass Details

Date: 16 April 2026
Orbit: 920 x 1201 km, 28.2° (Epoch: 13 May)

Event Time Altitude Azimuth Distance (km) Brightness Sun altitude
Rises 07:32:07 0° 247° (WSW) 3,706 7.5 30.6°
Reaches altitude 10° 07:35:55 10° 226° (SW) 2,814 7.0 31.5°
Maximum altitude 07:40:01 16° 189° (S) 2,438 7.0 32.4°
Drops below altitude 10° 07:44:18 10° 153° (SSE) 2,944 7.7 33.4°
Sets 07:48:25 0° 132° (SE) 3,962 8.5 34.4°
